loading
DOY 175 | 2024-06-23T18:51:07Z

THOR ABLESTAR R/B, 893

Orbit data source: Space-Track

THOR ABLESTAR R/B, 893 is space debris in LEO originally from a launch on Tue, 06 Oct 1964 UTC launched from the Air Force Western Test Range (AFWTR). Debris objects in space refer to the collection of defunct objects orbiting the Earth. Examples of debris include non-operational satellites, rocket bodies, and fragments generated from explosions, collisions, or faulty payload assembly.

Loading next visibility...
Loading greatness...
THOR ABLESTAR R/B details
NORAD ID893
COSPAR ID
1964-063A
Orbit
LEO
Last TLE update1 day ago
Origin
Flag of USUSAF SSD (US)
ManufacturerAerojet
BusAblestar
MotorUnknown
Mass~600 kg wet, 600 kg dry
Launch date (UTC)
1964-10-06 (60 years ago)
Launch vehicleUnknown
Launch site
Air Force Western Test Range (AFWTR)
Object type
Payload
Rocket body
Debris
Radar Cross Section3.9 m², Large (>1 m²)
Predictive object data (real-time)
Latitude64.08452°
Longitude-124.04186°
Altitude1,066.241 km
Speed7.322 km/s
Apparent Right ascension20h 36m 03s
Apparent Declination43° 35' 45"
Sunlit
Object is in daylight
Predictive observer data (real-time)
Local Sidereal Time06:00:22
Azimuth332.934° NNW
Elevation0.591°
Doppler factor1
Orbital elements
Apogee1,065.441 km
Perigee1,027.471 km
Semi-major axis7,424.593 km
Eccentricity0.002557
Inclination90.2151°
RAAN58.7427°
Arg. of periapsis174.614°
True anomaly249.5886°
Mean anomaly249.8634°
Mean motion3.39261 °/min
BSTAR0.000091037
Period106.11 mins
Definitive object data (Epoch: 2024-06-22T18:03:49.276Z)
Latitude64.28508°
Longitude-124.06845°
Altitude1,067.164 km
Speed7.321 km/s
True Right ascension03h 53m 11s
True Declination64° 09' 22"
Sunlit
Object was in daylight at TLE epoch
TLE from 1 day ago
0 THOR ABLESTAR R/B
1 00893U 64063A   24174.75265366  .00000073  00000-0  91037-4 0  9991
2 00893  90.2151  58.7427 0025570 174.6140 249.8634 13.56232639953839
Epoch: 2024-06-22T18:03Z
No data available

THOR ABLESTAR R/B Visibility forecast

Observer location: 39.9160978°, -105.1181434, 0m alt.

THOR ABLESTAR R/B is not visible in the next 10 days
Span
Click to sort rows by Start time (UTC) header in descending order
Start Az.
Max El. time (UTC)
Max El. Az.
Max El.
End time (UTC)
End Az.